GFSMA_925_spd_216.txt.gz
Wind_Speed
28 26 24 24 23 21 20 19 18 16 15 14 13 9 6 5 4 3 6 10 10 11 12 12 13 14 13 13 13 12 12 12 12 12 11 11 10 10 8 7 6 5 5
30 29 28 26 25 23 21 21 20 18 17 16 15 12 11 12 12 7 7 9 13 13 14 13 14 14 14 14 15 15 14 15 16 17 14 13 12 11 10 9 9 9 9
33 32 30 29 27 24 22 22 22 19 17 15 16 15 16 17 14 13 11 12 13 12 13 14 15 15 15 15 15 16 17 15 18 17 15 14 13 12 11 12 13 12 11
37 34 33 32 29 26 25 23 24 22 21 20 20 21 21 18 15 14 16 12 12 12 13 15 16 18 18 17 17 16 16 17 20 20 20 18 16 16 15 16 15 14 13
38 39 36 36 31 30 29 26 26 25 26 26 25 24 22 19 18 16 15 16 17 15 15 15 17 19 20 20 20 19 18 20 22 22 22 21 19 18 16 16 15 12 12
41 41 40 35 36 33 33 32 30 28 28 30 27 26 23 22 21 20 19 18 18 19 18 16 16 18 20 21 23 23 21 22 23 23 25 23 20 18 17 16 13 13 12
39 42 43 37 38 41 38 36 35 32 26 22 21 16 16 17 21 21 20 21 19 18 18 19 19 20 21 21 24 24 25 24 26 26 26 25 23 20 17 16 15 13 11
40 40 43 44 38 41 39 39 40 32 32 26 13 5 1 6 16 19 20 21 21 20 20 20 21 22 21 22 25 27 28 27 28 30 30 29 27 23 20 18 15 14 12
42 43 44 42 43 41 43 42 42 36 28 26 27 11 2 4 2 12 21 25 25 24 25 25 25 24 24 23 25 27 26 31 32 32 29 32 27 23 22 19 17 14 14
43 42 44 46 44 44 42 37 37 37 30 24 22 23 13 6 4 1 6 10 12 16 18 19 20 20 23 26 28 27 27 30 38 40 40 34 26 25 23 21 17 13 12
40 44 43 42 46 44 46 40 35 37 35 28 29 16 17 10 8 3 3 4 8 12 14 16 19 19 20 22 24 25 27 27 27 30 22 25 25 24 19 22 17 15 17
41 39 42 42 41 43 42 40 36 34 34 34 33 27 19 7 10 6 3 7 9 13 15 15 16 16 17 20 22 24 25 24 21 23 27 29 28 26 22 20 22 19 16
36 36 36 38 38 39 38 37 35 35 35 34 33 28 23 19 13 11 9 5 5 6 9 15 13 14 15 16 20 20 22 22 20 25 33 32 33 28 25 20 18 16 12
34 36 36 36 36 34 30 28 32 32 25 23 22 21 18 19 15 15 11 9 2 6 5 13 11 15 18 18 18 18 18 20 18 25 33 34 31 30 25 24 21 17 13
31 30 32 35 31 28 26 31 30 28 26 23 19 15 14 12 11 13 13 14 8 2 3 6 6 6 9 15 16 17 15 16 15 27 34 31 35 33 32 28 20 16 13
26 26 26 27 27 27 27 26 25 22 19 15 14 13 10 9 10 10 11 12 13 9 2 6 7 12 15 16 14 14 12 12 12 24 32 35 39 38 29 22 19 14 11
24 25 27 29 29 27 27 25 21 17 17 17 13 10 9 9 8 9 10 10 11 12 6 7 12 12 12 13 13 11 10 12 12 27 34 37 40 31 26 21 17 14 11
19 22 24 29 30 28 25 22 20 19 18 15 13 12 13 11 10 11 12 13 13 13 13 12 10 9 10 10 10 9 10 12 18 30 37 43 40 32 29 25 20 15 17
20 23 24 25 25 25 24 20 20 18 16 15 13 13 12 11 11 10 11 13 12 12 15 17 12 9 8 9 11 12 15 18 26 34 41 43 38 32 27 22 22 20 18
23 23 24 23 21 20 18 17 16 15 15 13 12 10 9 9 9 10 13 11 10 12 13 15 14 10 10 9 15 18 17 21 24 31 34 35 33 28 25 22 23 21 23
22 22 21 20 20 19 18 18 17 15 14 12 10 10 10 10 11 13 8 9 12 13 14 14 12 8 8 9 20 19 20 24 24 27 29 29 29 28 25 26 25 21 20
23 24 24 23 21 18 17 16 15 13 11 10 9 8 9 9 9 9 7 11 13 15 16 17 17 16 22 18 18 22 20 14 6 26 32 31 31 29 28 30 27 25 22
23 22 21 19 17 17 14 11 10 9 7 5 3 6 10 11 11 10 11 13 14 16 18 21 22 24 21 22 21 21 23 24 17 22 30 17 23 22 29 28 27 25 23
20 19 18 16 16 15 12 9 5 3 3 3 8 13 15 16 15 13 13 14 16 17 17 18 21 23 23 21 20 21 27 28 14 14 31 11 25 21 27 25 24 23 22
19 17 17 17 17 14 7 4 2 4 6 8 15 19 21 22 20 16 15 17 18 20 15 16 19 21 20 17 19 23 21 22 9 13 35 17 20 15 20 26 25 23 21
22 21 18 14 10 6 8 6 6 9 16 17 22 21 16 15 14 11 13 15 19 21 16 15 15 15 17 18 18 25 27 23 14 8 25 21 24 21 7 23 28 26 24

GFSMA_925_spd_219.txt.gz
Wind_Speed
29 28 27 26 25 24 23 22 20 19 17 15 13 12 9 7 7 6 6 11 11 11 11 10 12 12 12 12 12 12 11 10 11 11 10 9 10 9 8 9 8 8 8
31 31 29 29 27 26 24 23 22 21 19 17 16 16 14 12 10 10 8 10 13 13 12 11 12 13 13 14 14 14 14 13 12 12 12 11 11 11 10 11 11 10 10
34 33 32 31 30 28 25 24 23 22 21 20 20 19 17 15 14 13 12 11 12 14 13 12 13 15 15 15 15 16 16 15 14 14 16 15 15 16 14 13 13 12 13
36 35 34 33 31 29 27 26 26 26 25 22 21 20 21 19 17 15 13 12 13 15 14 14 14 15 16 17 17 17 17 16 16 18 20 20 20 18 17 16 16 16 15
39 38 37 35 32 30 30 29 27 27 27 26 23 23 21 20 19 18 17 15 16 16 15 14 15 15 17 18 19 19 20 19 19 22 22 23 24 22 20 19 19 20 19
42 41 40 38 34 32 32 32 31 28 28 27 25 24 24 23 22 21 20 18 18 18 18 17 16 16 17 18 19 20 23 23 23 24 24 25 26 26 25 21 19 18 16
44 43 42 40 37 37 36 33 32 31 29 27 21 20 22 24 24 24 23 22 20 21 20 18 18 18 18 19 20 21 23 24 25 25 29 28 29 29 28 22 18 15 13
42 44 44 42 42 39 37 37 35 28 31 31 15 4 2 8 20 22 22 23 22 20 19 18 18 19 20 21 21 21 23 22 24 27 27 36 33 31 30 20 18 18 13
41 41 43 43 41 42 39 40 39 34 24 31 28 11 2 5 2 13 23 23 22 22 21 22 22 21 21 22 22 22 21 21 22 24 28 29 37 31 26 22 20 20 15
43 43 42 42 42 41 40 41 41 40 33 25 31 23 13 5 3 1 7 16 21 23 22 20 18 18 17 17 18 21 22 23 23 25 26 26 40 34 25 23 23 18 17
40 43 45 44 43 43 42 42 40 40 41 31 30 19 21 12 9 3 3 4 11 14 13 13 14 16 14 16 15 17 19 20 20 21 20 19 19 21 23 24 18 18 17
39 42 45 45 46 44 44 44 45 42 41 40 37 36 28 13 11 6 3 4 5 8 10 10 11 12 12 14 15 17 19 20 19 17 15 12 23 24 26 24 18 14 15
37 40 43 42 44 44 43 43 42 43 41 39 33 34 35 30 20 18 9 3 5 3 5 5 8 6 6 10 13 14 15 16 18 15 12 20 29 29 27 21 20 20 18
37 38 39 38 39 40 41 39 38 39 37 35 34 35 34 33 21 12 8 8 1 5 3 6 5 4 10 10 13 15 17 17 18 13 15 24 31 31 28 24 24 21 18
33 31 32 32 33 36 34 34 34 32 30 31 33 34 29 27 23 15 19 14 8 3 2 3 4 2 7 11 18 18 17 16 13 12 12 24 33 31 27 27 29 27 24
29 27 28 29 30 32 32 31 29 25 21 22 21 21 20 17 17 15 12 10 10 9 3 7 4 8 13 15 17 17 16 15 12 10 10 27 33 34 34 36 36 27 20
21 21 21 23 26 26 25 24 24 23 21 24 18 17 15 16 14 11 11 10 10 11 5 6 10 12 13 13 15 14 14 12 12 11 7 24 32 37 38 38 32 24 21
18 18 19 21 22 22 25 28 25 24 22 19 18 17 13 11 11 11 10 9 9 10 10 8 7 8 11 11 13 13 13 11 11 11 9 24 33 39 40 33 27 24 20
16 17 18 19 21 24 26 27 27 25 21 19 15 14 13 11 11 10 8 7 9 10 12 12 3 8 10 11 11 11 12 11 10 10 17 23 31 40 39 37 32 25 23
17 18 18 19 21 24 25 23 22 20 17 14 12 10 10 9 7 6 6 7 9 10 11 12 8 11 11 10 11 12 12 11 10 12 21 29 32 35 36 29 25 25 25
16 17 18 19 20 21 21 20 19 17 16 14 10 8 6 5 3 3 5 7 9 11 13 12 11 7 8 10 11 10 12 14 14 17 21 19 23 23 20 20 21 23 24
17 18 19 20 20 18 16 14 14 15 13 12 10 6 3 1 2 3 5 7 10 13 15 14 13 13 16 14 12 14 13 8 4 18 25 22 23 21 23 22 24 25 25
20 20 21 22 21 19 16 16 14 14 13 10 8 5 2 2 4 6 8 11 13 15 15 16 18 18 19 19 17 16 18 17 12 12 26 21 25 26 26 25 25 26 23
22 23 23 23 25 21 18 17 15 14 12 8 4 1 3 5 7 12 15 17 17 17 17 16 18 20 20 18 17 16 18 20 16 13 23 11 24 22 23 21 22 23 23
26 25 25 26 26 22 18 15 12 10 8 5 3 4 6 10 14 17 18 20 21 24 20 17 17 19 20 19 16 15 17 15 8 11 24 12 17 16 22 24 23 23 23
30 30 28 26 24 20 13 8 5 3 1 2 6 11 14 18 19 18 18 19 21 26 21 16 16 18 16 17 21 20 21 20 11 7 21 20 17 16 6 21 26 24 24

GFSMA_925_spd_225.txt.gz
Wind_Speed
26 23 24 25 23 24 24 22 22 22 20 18 16 15 15 13 12 9 8 10 14 17 15 13 11 12 13 12 12 12 12 12 12 11 11 11 11 10 10 8 6 5 4
26 25 25 26 24 26 26 25 24 22 20 18 18 17 15 14 11 11 10 10 12 16 16 14 13 13 13 13 13 14 14 14 14 13 12 12 12 14 13 12 10 8 7
31 27 24 24 26 27 27 26 25 24 23 21 20 18 17 16 15 14 13 12 12 17 18 17 17 16 14 14 13 13 15 16 16 16 16 14 13 16 16 16 13 11 10
33 31 25 24 24 25 25 24 24 22 22 20 20 20 18 18 18 17 16 14 14 14 18 19 19 17 17 16 16 16 16 17 18 18 18 18 18 18 18 20 18 14 13
36 34 29 25 26 24 24 23 22 24 19 20 21 22 23 21 18 17 19 19 18 17 18 18 19 19 17 16 17 17 18 18 18 20 20 20 21 22 22 24 21 19 17
38 36 30 29 28 23 22 22 21 23 22 18 16 17 21 22 20 19 20 21 21 21 21 20 20 21 19 18 16 15 16 18 19 20 21 23 25 27 28 26 26 22 20
37 37 31 30 31 26 25 25 23 22 20 19 11 15 19 24 24 23 23 21 24 25 24 23 22 22 20 19 17 16 16 16 16 15 18 21 26 29 31 30 30 26 23
40 39 38 32 32 28 28 26 25 19 19 19 13 11 5 8 19 27 27 28 29 27 28 27 25 23 22 20 19 17 17 17 18 18 18 21 21 18 27 32 35 32 30
41 42 41 38 35 35 31 30 29 28 23 18 25 14 3 7 5 11 23 27 28 28 28 26 24 23 21 20 18 17 17 16 16 16 18 19 21 22 20 25 29 35 35
36 39 42 40 39 34 33 32 31 33 28 23 16 32 27 11 4 4 7 14 21 23 22 22 22 20 20 19 17 15 14 14 14 15 17 18 18 20 22 23 25 35 29
33 36 39 39 40 38 37 34 28 31 31 31 26 17 24 24 18 10 8 4 14 20 25 24 22 22 18 12 14 14 14 13 15 16 17 19 19 19 19 22 23 31 24
28 31 33 37 39 37 34 33 34 28 29 28 28 25 24 13 18 16 8 12 8 9 19 21 23 20 11 11 13 13 12 14 15 14 15 17 18 16 12 13 27 26 26
26 30 31 33 34 37 33 29 28 30 30 30 31 30 28 29 23 16 18 10 7 9 9 16 16 15 11 15 16 14 12 12 13 15 16 16 16 12 10 13 23 25 26
27 25 29 30 29 28 27 28 28 29 30 31 32 30 30 29 28 30 24 13 2 3 7 5 17 16 14 15 14 10 9 14 16 15 15 15 14 12 17 13 22 24 22
23 23 24 25 24 24 25 26 29 31 32 32 32 32 31 29 29 29 28 25 19 4 6 11 7 14 13 16 12 9 11 13 13 13 13 14 13 13 20 18 25 23 19
23 23 22 21 22 24 25 26 28 29 28 29 29 28 28 27 29 29 29 27 24 13 4 7 5 12 11 9 8 8 10 11 11 12 11 13 13 12 16 25 25 23 26
23 23 21 21 23 24 24 24 26 26 27 28 27 27 28 27 27 26 24 23 24 17 6 5 12 12 9 7 8 7 9 10 11 10 8 11 11 9 11 21 27 27 28
23 23 23 22 22 22 22 22 20 23 25 26 27 26 27 25 23 22 21 21 18 14 8 10 14 14 8 8 10 11 10 9 9 10 8 8 7 3 7 20 28 27 32
24 24 22 21 20 20 18 19 17 20 23 22 24 26 28 24 19 18 18 16 12 8 9 10 2 5 5 7 10 10 10 9 8 10 10 10 8 3 9 22 23 31 30
25 24 21 19 19 18 17 17 17 18 18 19 19 20 20 22 26 24 22 20 18 15 12 9 7 5 6 8 9 7 9 10 9 7 9 11 6 5 9 20 24 27 25
22 22 21 20 19 18 18 18 18 18 18 17 19 21 21 19 16 16 17 18 17 12 10 9 7 5 6 6 5 5 7 6 8 9 5 5 6 6 7 12 17 17 17
21 21 20 19 18 16 14 14 15 17 22 27 27 23 22 21 20 16 14 15 14 15 12 8 8 8 8 6 7 8 8 4 2 6 4 6 5 7 8 11 15 16 15
22 20 19 17 16 15 14 16 23 28 28 27 29 26 22 21 19 17 15 14 11 9 8 9 8 8 7 7 7 9 9 6 6 6 5 6 8 10 10 12 15 17 19
22 22 22 22 21 22 24 27 27 28 27 25 22 22 21 18 16 13 11 11 8 6 4 5 6 7 8 8 8 8 7 8 9 8 9 6 8 11 12 14 15 16 19
24 23 25 27 30 29 28 29 29 28 26 24 21 17 14 14 13 10 9 8 6 4 2 2 4 6 7 8 8 8 9 8 6 9 12 9 8 9 11 15 17 19 20
27 27 26 29 33 32 27 29 29 31 27 24 20 17 12 9 9 7 6 5 3 1 0 1 2 3 5 6 8 10 11 12 7 5 13 13 11 7 3 11 19 20 21

GFSMA_925_spd_231.txt.gz
Wind_Speed
19 19 19 18 19 18 19 19 19 17 17 16 15 15 13 13 12 11 10 9 9 13 18 17 15 14 15 15 15 15 16 16 17 16 15 15 16 16 16 16 18 15 14
22 21 21 20 20 20 19 20 19 19 18 17 17 16 16 15 14 14 14 14 14 14 18 21 21 18 17 17 18 18 18 19 19 19 19 18 19 19 19 19 19 19 16
24 23 23 22 22 21 21 20 20 19 18 18 18 17 18 18 18 17 16 16 14 15 17 22 24 23 21 20 18 18 20 21 21 21 22 22 21 20 20 20 21 22 21
27 26 24 24 23 22 22 22 21 21 21 20 19 19 19 19 19 20 20 20 19 18 18 19 24 26 26 25 23 21 21 21 21 22 23 24 24 24 23 23 23 23 22
31 28 27 25 24 24 24 23 23 22 21 21 21 21 20 20 20 20 21 21 22 22 19 19 21 22 28 28 27 25 24 24 23 23 24 26 26 26 26 27 26 26 25
33 32 28 27 26 25 25 25 24 23 23 22 21 22 21 21 21 22 22 22 23 23 23 23 19 23 24 28 29 28 27 26 26 25 25 26 27 28 28 29 29 30 29
33 34 32 28 28 29 28 27 25 24 23 22 20 21 20 20 23 24 22 24 25 25 24 24 22 22 21 20 23 28 28 27 25 25 25 25 26 27 29 31 29 31 31
33 36 36 32 32 30 28 28 28 24 25 23 20 18 9 17 26 29 27 27 26 25 24 24 24 24 20 15 16 21 27 27 23 22 21 22 22 23 21 21 23 26 29
38 37 37 35 32 34 31 31 29 30 23 23 25 19 7 10 13 17 24 22 24 24 25 23 25 26 25 24 24 21 20 20 21 21 18 14 18 20 21 23 23 24 23
37 38 37 36 35 33 33 31 31 30 27 23 22 28 29 19 6 8 11 17 19 21 22 23 25 26 28 28 25 25 28 27 24 16 13 11 16 20 23 24 25 25 24
38 37 38 38 36 35 33 33 29 33 30 28 25 20 24 23 23 16 10 10 11 16 20 27 27 27 26 27 27 24 25 19 12 5 10 12 15 22 22 24 24 25 25
33 38 38 38 38 36 35 33 33 29 32 29 28 25 24 18 18 16 11 15 17 15 18 20 23 27 28 27 25 23 14 13 13 14 11 16 18 23 22 24 24 24 24
32 35 40 38 38 38 34 33 31 32 31 31 29 27 26 25 23 21 18 15 11 16 10 18 22 26 26 25 22 19 16 18 19 15 16 17 17 17 21 22 22 20 20
31 30 34 36 36 34 34 32 31 30 30 30 30 29 26 24 24 24 21 16 7 6 8 11 16 22 24 22 25 20 19 19 17 12 13 14 15 17 20 20 19 16 13
28 29 31 34 34 34 32 32 31 30 29 29 29 29 27 25 22 23 21 20 12 5 5 10 12 16 20 22 25 19 15 13 12 9 13 14 14 16 17 17 18 17 13
31 29 31 32 33 33 32 32 30 29 28 28 26 24 25 24 25 26 25 25 24 18 6 15 16 14 22 20 21 14 15 11 10 12 12 12 13 14 15 17 18 17 18
31 32 32 32 33 33 33 31 30 28 28 26 26 24 24 24 25 26 26 25 24 22 10 7 15 15 19 20 19 15 10 4 8 11 9 10 9 11 12 14 14 14 19
34 33 32 33 33 32 32 31 30 28 27 26 24 26 26 25 26 25 24 24 25 23 13 6 9 10 13 16 15 9 8 8 6 7 5 7 8 10 12 12 13 10 12
34 33 33 33 33 31 30 28 27 27 27 24 23 26 25 24 24 24 24 24 23 21 17 12 6 10 14 15 17 10 8 4 5 7 6 7 7 8 9 10 10 8 12
34 34 34 33 31 28 31 28 28 26 26 24 23 20 20 21 22 22 22 21 19 15 13 15 15 18 15 12 9 10 6 3 3 3 5 6 6 7 7 6 5 5 9
33 34 33 31 29 28 29 30 29 27 25 24 20 19 19 19 18 17 19 19 18 19 18 16 11 9 7 7 8 4 4 6 6 7 5 4 2 3 5 5 5 3 8
32 32 31 29 29 30 31 31 28 24 25 22 20 17 15 15 14 15 17 19 21 24 17 14 11 13 11 9 10 9 7 3 3 7 7 5 3 2 3 2 4 3 5
28 27 27 29 30 34 32 30 24 21 22 21 20 18 17 16 18 21 22 21 18 16 14 12 12 12 14 15 14 11 10 9 5 4 3 5 7 6 5 5 5 6 7
19 20 24 25 23 31 29 28 25 22 21 21 22 22 23 25 24 25 23 20 18 16 14 12 8 8 6 7 7 7 8 7 7 6 4 3 7 8 9 9 8 9 10
22 21 21 22 20 29 29 30 29 26 25 24 24 25 26 26 25 23 23 23 19 16 14 12 10 10 11 12 10 8 7 5 5 10 12 8 9 8 10 13 11 11 13
24 29 24 21 22 28 29 28 29 31 29 28 26 26 24 24 23 20 19 22 21 16 12 10 9 10 11 12 13 12 8 10 7 3 10 11 10 8 3 8 14 13 14

GFSMA_925_spd_237.txt.gz
Wind_Speed
26 25 25 23 23 23 25 25 23 21 19 18 17 15 15 13 15 13 8 9 11 11 11 11 14 16 16 16 16 16 16 16 16 16 16 16 16 16 16 17 17 18 18
26 28 27 26 24 24 25 26 24 22 21 19 20 20 17 18 17 18 15 15 14 15 16 16 15 18 20 21 19 18 18 19 19 19 19 18 19 19 19 20 20 20 20
31 30 29 28 28 24 22 24 26 24 22 22 23 20 21 22 23 23 20 18 19 19 19 20 20 20 21 23 24 22 20 21 22 22 22 21 21 21 22 22 22 22 22
34 29 32 31 26 27 25 26 26 29 27 27 27 26 25 24 23 23 23 26 26 24 23 22 23 24 24 24 26 25 24 23 23 22 22 23 23 23 23 24 24 25 25
36 36 33 33 32 27 29 30 31 30 29 27 29 24 25 28 28 25 26 25 25 27 29 28 25 23 26 27 28 28 27 27 26 25 24 24 24 24 24 25 26 29 28
37 39 34 35 32 33 31 31 35 30 31 30 27 28 29 29 29 31 32 30 30 29 28 29 29 30 28 26 28 29 29 29 30 27 26 26 25 24 24 23 24 32 28
42 40 42 35 37 37 38 35 30 35 34 29 26 25 27 30 32 39 36 34 32 30 29 29 31 31 31 31 30 29 29 30 28 28 27 26 24 26 26 24 15 15 6
41 45 44 46 39 41 37 39 36 32 34 35 24 11 3 19 33 32 31 36 36 34 33 32 32 32 32 33 33 31 29 30 28 26 26 28 28 26 26 18 14 10 7
45 44 47 45 45 42 44 40 43 40 30 33 34 15 2 6 2 16 34 38 39 39 39 36 33 30 30 30 32 31 27 25 25 26 28 25 22 23 21 13 8 7 12
45 47 48 48 46 46 43 46 43 44 36 29 30 37 33 5 4 3 12 26 33 37 37 34 32 29 28 30 27 30 30 29 28 25 18 17 19 18 10 11 13 13 11
46 49 49 48 48 48 47 45 44 46 43 32 33 30 32 30 26 8 4 10 11 19 22 27 27 26 27 28 28 26 25 26 21 17 17 16 15 14 14 13 13 12 14
44 47 51 51 51 46 48 49 48 45 44 41 34 36 30 18 23 16 9 12 12 23 22 25 27 27 27 28 27 24 20 19 20 20 18 14 13 14 16 14 13 15 17
36 44 51 48 48 51 46 42 44 44 44 42 43 39 37 36 29 27 22 10 8 16 16 20 25 25 25 24 23 20 21 21 21 19 15 13 14 16 16 15 15 17 17
40 43 49 48 49 47 46 44 42 45 41 46 42 41 37 37 37 29 24 16 3 8 10 11 16 20 22 22 19 21 19 18 18 17 15 15 15 12 13 13 15 16 15
37 41 44 50 50 48 46 44 44 41 41 42 44 41 40 35 38 40 33 26 15 5 4 10 13 17 20 19 18 17 16 18 18 18 14 13 12 10 10 13 13 13 13
39 40 44 47 48 45 45 44 40 40 38 40 39 37 39 37 36 34 33 34 32 22 6 9 12 13 13 14 13 12 13 16 17 15 14 10 10 10 11 10 12 13 12
41 37 38 46 46 45 43 41 43 37 39 37 37 39 38 37 36 38 36 33 32 24 9 9 13 15 14 13 11 12 14 15 12 12 12 10 10 9 9 9 11 12 12
39 38 40 38 41 43 43 43 42 39 37 38 39 36 40 36 37 35 37 33 32 30 20 11 15 15 13 13 13 14 16 14 15 13 6 8 8 8 9 9 9 10 10
40 41 39 39 40 43 42 42 42 40 40 41 38 38 38 34 35 31 34 32 30 27 25 18 14 13 11 14 16 17 18 17 13 9 8 9 10 8 8 8 8 7 6
29 37 41 40 41 42 43 41 42 41 41 39 40 39 39 39 36 33 34 32 28 26 24 21 14 10 12 15 23 23 19 15 11 9 9 8 8 8 9 8 6 4 2
31 31 37 42 41 41 43 42 41 41 39 38 38 40 40 40 41 40 37 33 30 27 24 20 11 8 12 16 22 21 17 17 12 12 9 8 7 7 5 3 2 3 4
25 32 34 37 40 42 43 47 45 40 40 38 36 38 41 41 42 40 35 31 30 30 26 20 14 11 17 19 21 24 19 9 4 15 12 10 8 6 4 3 2 5 6
25 24 30 34 39 43 44 44 47 42 37 37 35 40 42 42 41 37 31 26 25 27 28 27 26 21 20 26 26 26 21 15 7 5 12 8 11 10 7 5 4 6 6
29 30 30 30 34 40 42 42 45 44 39 44 46 44 42 38 37 36 32 28 26 25 22 21 23 21 19 22 27 29 25 14 8 10 12 6 9 9 11 8 4 5 7
29 29 29 29 29 35 37 39 43 40 36 41 41 40 43 41 38 36 34 32 27 24 23 21 18 17 16 19 24 21 20 18 5 10 15 6 6 6 7 8 6 6 8
30 28 29 27 27 29 29 30 39 37 37 37 37 39 41 41 38 37 38 38 34 30 29 27 24 22 22 22 20 16 19 22 8 6 14 10 6 6 1 0 6 9 9

GFSMA_925_spd_243.txt.gz
Wind_Speed
28 27 26 25 25 24 24 23 21 19 18 17 17 16 15 12 10 9 9 10 13 18 16 16 16 17 17 18 18 19 19 19 19 19 18 19 19 19 19 19 20 20 21
29 29 28 27 27 26 25 25 24 23 21 19 19 19 19 18 16 15 15 14 13 16 18 19 20 20 20 20 20 22 22 22 23 22 22 21 21 21 22 22 22 23 24
31 30 29 29 29 27 25 25 25 25 25 24 24 23 23 23 23 22 20 20 20 20 22 23 24 24 23 24 24 23 24 24 25 25 25 24 23 23 24 24 24 25 26
33 32 31 31 29 28 27 27 27 28 29 28 28 28 27 26 25 25 26 27 26 26 25 26 26 26 26 26 27 27 27 26 26 26 27 26 25 25 25 25 25 26 27
36 35 34 33 31 30 30 30 30 30 31 32 31 30 29 28 28 28 29 28 29 29 29 29 28 28 29 29 29 30 30 29 28 27 26 27 27 27 26 26 26 26 27
39 38 37 36 33 32 32 32 33 31 32 31 30 31 30 30 31 32 33 32 32 32 31 32 31 30 29 29 29 29 30 30 29 27 27 26 26 25 25 25 25 23 23
42 41 41 40 36 36 37 36 34 34 33 31 24 27 32 33 34 35 36 37 37 36 35 35 34 34 32 31 30 31 32 32 31 29 29 28 27 27 25 24 20 18 20
43 43 44 44 43 41 37 38 36 32 34 31 17 6 4 13 24 34 39 41 43 39 37 36 34 34 34 33 31 29 28 28 28 28 26 29 28 27 26 24 19 17 18
44 44 44 44 44 43 41 42 41 39 27 26 31 15 1 5 4 8 17 23 28 32 34 36 36 33 31 30 30 28 27 26 25 24 23 24 25 24 22 18 16 16 16
46 45 44 44 44 43 44 43 42 42 35 26 22 34 35 11 3 5 5 8 11 16 17 20 23 24 26 28 29 29 27 24 23 21 21 21 20 19 17 16 16 15 13
48 48 47 47 47 46 46 45 40 41 39 33 30 17 29 30 28 11 13 14 19 21 20 19 17 20 20 23 24 24 22 21 18 16 16 17 17 16 16 16 14 12 12
46 49 49 49 48 47 47 47 44 42 43 40 37 32 30 15 18 13 9 23 18 28 27 30 33 33 30 25 23 22 21 19 16 16 16 15 16 16 16 13 11 11 13
34 47 51 49 50 51 49 45 43 44 45 40 41 38 34 37 33 27 21 19 7 16 18 27 25 24 23 23 22 23 21 17 16 16 15 14 15 15 11 9 11 13 14
40 38 44 45 47 47 47 45 43 45 43 42 43 40 38 38 34 33 32 19 7 6 17 25 20 22 22 24 24 24 21 17 16 16 13 14 12 11 10 11 11 12 12
32 36 36 39 43 44 46 45 43 43 43 42 42 42 38 40 34 35 37 33 23 12 13 18 15 18 24 25 24 23 20 17 15 13 11 11 12 13 14 12 10 11 11
32 32 32 35 38 40 42 42 39 41 38 41 40 36 40 39 35 37 38 35 32 29 12 24 22 21 19 22 23 21 19 18 14 11 11 14 15 14 13 11 12 11 12
33 37 36 36 38 38 38 38 40 38 38 38 37 37 40 39 35 35 38 34 32 29 16 32 24 22 22 23 22 20 18 16 13 12 13 13 13 12 10 10 9 10 11
39 32 31 32 36 37 39 41 40 38 39 36 39 37 39 35 35 36 33 33 32 32 29 25 25 22 23 23 22 19 17 15 13 13 13 12 10 10 9 9 9 9 10
8 10 17 22 27 31 35 38 41 40 38 39 39 37 37 34 32 32 33 32 30 31 31 29 21 21 25 23 22 19 18 16 14 14 14 13 13 11 10 10 9 9 8
8 6 6 9 14 21 28 32 37 39 37 37 39 40 38 37 37 35 33 34 32 29 29 27 22 18 20 20 26 24 19 19 19 18 17 15 15 12 11 12 9 8 5
13 11 10 10 10 12 14 22 28 34 36 36 38 41 41 42 44 42 36 34 32 31 28 24 17 11 14 13 23 26 22 24 22 23 22 18 16 12 9 6 5 5 4
15 14 12 11 10 11 12 14 15 23 27 29 32 34 38 41 44 47 48 48 40 35 30 25 23 18 20 24 27 28 23 12 4 23 24 21 18 14 11 9 8 8 8
19 14 13 14 15 14 15 15 15 18 22 25 29 31 33 36 40 44 50 52 54 51 47 36 32 30 25 34 35 29 28 21 15 18 28 21 19 13 9 7 7 8 9
29 24 17 14 15 17 17 17 16 17 20 23 23 27 34 36 38 42 41 43 54 57 56 52 43 40 43 42 41 40 40 29 17 20 28 7 17 13 12 10 7 12 11
32 28 25 20 19 19 18 18 18 17 20 24 25 26 26 35 38 41 43 37 42 44 52 56 53 45 44 39 41 33 29 25 5 11 25 9 15 15 16 15 11 12 13
32 32 28 27 22 22 20 17 16 17 22 25 26 27 28 28 36 42 43 39 35 46 47 44 43 38 36 33 31 36 36 26 13 5 23 17 18 13 4 7 12 11 11